DateTimeUTC,F1_A11,F1_S11,BsB_S11,BsG_S11,BsR_S11,BbsB_S11,BbsG_S11,BbsR_S11,BaB_A11,BaG_A11,BaR_A11,T_S11,U_S11,P_S11,T1_A11
2020-01-01T00:00:00Z,00000380,21000600,,,,,,,,,,22.4,00.0,0623.4,30.8
2020-01-01T00:01:00Z,00000380,21000600,,,,,,,,,,22.4,00.0,0623.4,30.8
2020-01-01T00:02:00Z,00000380,21000600,,,,,,,,,,22.4,00.0,0623.4,30.8
2020-01-01T00:03:00Z,00000380,61000600,,,,,,,,,,22.4,00.0,0623.4,30.8
2020-01-01T00:04:00Z,00000380,41000600,0001.09,0000.73,0000.48,-000.01,0000.07,0000.12,0000.13,-000.12,0000.01,22.2,00.0,0624.5,30.8
2020-01-01T00:05:00Z,00000380,01000600,0000.69,-000.08,0000.41,0000.85,-000.47,0000.29,-000.01,0000.03,-000.00,22.2,00.0,0624.5,30.8
2020-01-01T00:06:00Z,00000380,01000600,0000.14,0000.01,0000.04,-000.65,0000.00,-000.33,0000.05,0000.11,0000.06,22.2,00.0,0624.6,30.8
2020-01-01T00:07:00Z,00000380,01000600,0000.68,0000.31,0000.64,0000.20,-000.09,-000.40,-000.00,0000.07,0000.00,22.1,00.0,0624.6,30.8
2020-01-01T00:08:00Z,00000380,01000600,0000.59,0000.52,-000.30,-000.07,0000.20,-000.07,-000.04,-000.14,-000.02,22.1,00.0,0624.6,30.8
2020-01-01T00:09:00Z,00000380,01000600,0000.47,-000.31,-000.19,-000.02,0000.09,-000.42,-000.04,0000.00,0000.02,22.1,00.0,0624.6,30.8
2020-01-01T00:10:00Z,00000380,01000600,0000.00,0000.10,0000.77,0000.21,0000.03,0000.07,0000.05,-000.01,-000.01,22.1,00.0,0624.6,30.8
2020-01-01T00:11:00Z,00000380,01000600,-000.18,0000.28,-000.22,-000.83,-000.07,-000.22,0000.16,0000.16,0000.17,22.1,00.0,0624.6,30.8
2020-01-01T00:12:00Z,00000380,01000600,0001.32,0000.12,0000.63,0000.84,0000.07,0000.19,-000.03,-000.01,-000.05,22.1,00.0,0624.6,30.8
2020-01-01T00:13:00Z,00000380,01000600,0001.10,-000.57,0000.24,0000.04,-000.09,-000.02,-000.02,-000.03,0000.10,22.1,00.0,0624.5,30.8
2020-01-01T00:14:00Z,00000380,01000600,0000.74,0000.07,-000.02,0000.72,0000.13,0000.01,0000.03,0000.09,-000.12,22.1,00.0,0624.5,30.8
2020-01-01T00:15:00Z,00000380,01000600,-000.09,-000.17,0000.24,-000.95,-000.21,-000.41,0000.06,0000.06,0000.16,22.1,00.0,0624.5,30.8
2020-01-01T00:16:00Z,00000380,01000600,0001.01,-000.35,-000.55,0000.28,0000.13,0000.05,0000.13,-000.02,-000.10,22.1,00.0,0624.5,30.8
2020-01-01T00:17:00Z,00000380,01000600,0000.88,0000.14,0000.28,0000.80,0000.14,0000.42,-000.19,-000.07,0000.01,22.1,00.0,0624.5,30.8
2020-01-01T00:18:00Z,00000380,01000600,0000.14,0000.14,-000.09,-000.11,0000.39,-000.28,-000.01,0000.10,0000.06,22.1,00.0,0624.5,30.8
2020-01-01T00:19:00Z,00000380,01000600,-000.21,0000.43,0000.40,0000.32,-000.15,-000.02,0000.03,-000.05,0000.04,22.1,00.0,0624.5,30.8
2020-01-01T00:20:00Z,00000380,01000600,0000.65,0000.53,0000.17,-000.72,-000.21,0000.09,0000.05,0000.08,-000.00,22.1,00.0,0624.5,30.8
2020-01-01T00:21:00Z,00000380,01000600,0000.97,0000.14,0000.15,0000.99,0000.25,0000.14,0000.01,0000.03,-000.11,22.0,00.0,0624.5,30.8
2020-01-01T00:22:00Z,00000380,01000600,0000.66,0000.74,0000.15,-000.33,0000.00,0000.08,0000.11,0000.00,0000.13,22.0,00.0,0624.5,30.8
2020-01-01T00:23:00Z,00000380,01000600,0000.25,0000.69,0000.16,-000.49,-000.01,-000.04,-000.01,0000.01,-000.00,22.0,00.0,0624.5,30.8
2020-01-01T00:24:00Z,00000380,01000600,0000.84,0000.18,0000.76,-000.29,-000.33,-000.13,0000.05,0000.08,-000.04,22.0,00.0,0624.5,30.8
2020-01-01T00:25:00Z,00000380,01000600,0000.48,0000.72,0000.17,0000.09,0000.06,0000.02,0000.05,-000.11,0000.15,22.0,00.0,0624.5,30.8
2020-01-01T00:26:00Z,00000380,01000600,0000.55,0000.45,0000.78,-000.29,0000.18,-000.17,-000.07,0000.04,-000.15,22.0,00.0,0624.5,30.8
2020-01-01T00:27:00Z,00000380,01000600,0001.42,0000.74,-000.04,-000.06,-000.25,0000.28,0000.03,0000.05,0000.10,22.0,00.0,0624.4,30.8
2020-01-01T00:28:00Z,00000380,01000600,0001.43,0000.29,0000.08,0000.17,0000.14,0000.04,0000.09,0000.08,-000.01,22.0,00.0,0624.5,30.8
2020-01-01T00:29:00Z,00000380,01000600,0000.47,-000.70,0000.40,0000.69,-000.09,-000.02,-000.09,-000.02,-000.06,22.0,00.0,0624.4,30.8
2020-01-01T00:30:00Z,00000380,01000600,-000.18,0000.31,0000.52,-000.36,-000.24,0000.18,-000.03,0000.12,0000.06,22.0,00.0,0624.4,30.8
2020-01-01T00:31:00Z,00000380,01000600,0000.30,-000.20,-000.14,-000.38,-000.02,-000.27,0000.11,-000.02,0000.11,22.0,00.0,0624.4,30.8
2020-01-01T00:32:00Z,00000380,01000600,0001.31,-000.35,0000.09,-000.70,-000.14,0000.26,0000.04,0000.04,-000.03,22.0,00.0,0624.4,30.8
2020-01-01T00:33:00Z,00000380,01000600,-000.05,0000.10,0000.02,-000.07,-000.27,-000.13,-000.10,-000.13,-000.09,22.0,00.0,0624.4,30.8
2020-01-01T00:34:00Z,00000380,01000600,0000.16,-000.10,0000.04,0000.23,0000.13,0000.14,0000.14,0000.01,0000.08,22.0,00.0,0624.4,30.8
2020-01-01T00:35:00Z,00000380,01000600,0000.25,0000.63,0000.14,-000.47,0000.59,-000.38,-000.01,0000.11,0000.02,22.0,00.0,0624.4,30.8
2020-01-01T00:36:00Z,00000380,01000600,0000.63,0000.50,0000.75,0000.06,0000.25,0000.30,0000.01,-000.02,-000.04,22.0,00.0,0624.4,30.8
2020-01-01T00:37:00Z,00000380,01000600,0000.36,0000.58,0000.40,0000.42,-000.09,0000.11,0000.12,0000.09,0000.14,22.0,00.0,0624.4,30.8
2020-01-01T00:38:00Z,00000380,01000600,0000.91,0000.25,0000.57,-000.41,0000.32,0000.01,-000.05,0000.07,0000.10,22.0,00.0,0624.4,30.8
2020-01-01T00:39:00Z,00000380,01000600,0000.50,0000.65,0000.07,-000.79,0000.16,-000.25,0000.06,0000.10,-000.06,22.0,00.0,0624.4,30.8
2020-01-01T00:40:00Z,00000380,01000600,0000.53,-000.08,-000.12,0000.21,-000.23,-000.40,-000.01,0000.02,-000.01,22.0,00.0,0624.4,30.8
2020-01-01T00:41:00Z,00000380,01000600,0000.29,-000.26,-000.27,0000.40,0000.03,0000.04,0000.03,-000.07,-000.03,22.0,00.0,0624.4,30.8
2020-01-01T00:42:00Z,00000380,01000600,0000.39,0000.01,0000.23,0000.06,0000.10,0000.35,0000.01,0000.04,0000.04,22.0,00.0,0624.4,30.8
2020-01-01T00:43:00Z,00000380,01000600,0000.00,-000.14,-000.20,-000.21,-000.06,-000.06,0000.03,0000.04,-000.03,22.0,00.0,0624.4,30.8
2020-01-01T00:44:00Z,00000380,01000600,0000.45,0000.02,-000.02,-000.09,-000.11,-000.30,0000.09,0000.07,0000.14,22.0,00.0,0624.4,30.8
2020-01-01T00:45:00Z,00000380,01000600,0001.00,0000.81,0000.45,-000.41,0000.01,0000.05,0000.02,-000.06,-000.04,22.0,00.0,0624.4,30.8
2020-01-01T00:46:00Z,00000380,01000600,0000.41,-000.11,-000.20,-000.68,0000.22,0000.05,0000.00,0000.09,0000.03,21.9,00.0,0624.4,30.8
2020-01-01T00:47:00Z,00000380,01000600,0000.23,0000.14,0000.07,0000.32,0000.09,-000.13,0000.01,-000.12,0000.04,21.9,00.0,0624.4,30.8
2020-01-01T00:48:00Z,00000380,01000600,0000.57,0000.27,-000.03,-000.04,0000.06,-000.20,0000.01,0000.08,0000.03,21.9,00.0,0624.3,30.8
2020-01-01T00:49:00Z,00000380,01000600,0001.29,0000.31,-000.06,-000.03,0000.16,-000.15,0000.01,0000.00,0000.13,21.9,00.0,0624.4,30.8
2020-01-01T00:50:00Z,00000380,01000600,-000.18,0000.62,-000.08,-000.54,-000.32,0000.24,-000.05,-000.04,-000.18,21.9,00.0,0624.4,30.8
2020-01-01T00:51:00Z,00000380,01000600,-000.29,0000.20,0000.39,-000.83,-000.15,-000.04,0000.06,0000.15,-000.04,21.9,00.0,0624.4,30.8
2020-01-01T00:52:00Z,00000380,01000600,0001.75,0000.44,0000.68,-000.35,0000.27,0000.30,-000.06,-000.12,0000.06,21.9,00.0,0624.3,30.8
2020-01-01T00:53:00Z,00000380,01000600,0000.27,0000.25,-000.06,-000.17,-000.20,0000.32,0000.01,-000.01,-000.01,21.9,00.0,0624.3,30.8
2020-01-01T00:54:00Z,00000380,01000600,0000.86,0000.35,-000.22,0000.29,0000.42,-000.21,-000.04,0000.01,0000.06,21.9,00.0,0624.3,30.8
2020-01-01T00:55:00Z,00000380,01000600,0000.11,0000.28,-000.27,-001.43,-000.14,0000.01,0000.09,0000.01,-000.05,21.9,00.0,0624.3,30.8
2020-01-01T00:56:00Z,00000380,01000600,0000.04,-000.26,0000.46,0000.15,0000.12,0000.08,-000.05,-000.00,-000.01,21.9,00.0,0624.3,30.8
2020-01-01T00:57:00Z,00000380,41000600,,,,,,,,,,21.9,00.0,0624.4,30.8
2020-01-01T00:58:00Z,00000380,61000600,,,,,,,,,,22.1,00.0,0623.4,30.8
2020-01-01T00:59:00Z,00000380,21000600,,,,,,,,,,22.2,00.0,0623.3,30.8
2020-01-01T01:00:00Z,00000380,21000600,,,,,,,,,,22.2,00.0,0623.3,30.8
2020-01-01T01:01:00Z,00000380,21000600,,,,,,,,,,22.2,00.0,0623.3,30.8
2020-01-01T01:02:00Z,00000380,21000600,,,,,,,,,,22.2,00.0,0623.3,30.8
2020-01-01T01:03:00Z,00000380,61000600,,,,,,,,,,22.2,00.0,0623.3,30.8
2020-01-01T01:04:00Z,00000380,41000600,0001.81,0001.22,0001.00,0000.70,0000.28,0000.16,-000.07,-000.11,0000.11,22.0,00.0,0624.3,30.8
2020-01-01T01:05:00Z,00000380,01000600,0000.94,0000.94,0000.29,-000.19,0000.08,-000.06,-000.00,0000.09,-000.02,22.0,00.0,0624.3,30.8
2020-01-01T01:06:00Z,00000380,01000600,0001.69,0000.89,0000.44,-000.42,-000.02,0000.11,-000.07,-000.19,-000.06,22.0,00.0,0624.3,30.8
2020-01-01T01:07:00Z,00000380,01000600,0001.35,0000.74,0000.24,-000.33,-000.42,0000.08,0000.04,0000.07,-000.12,22.0,00.0,0624.3,30.8
2020-01-01T01:08:00Z,00000380,01000600,0001.17,0000.52,-000.37,0000.18,0000.42,0000.06,-000.01,-000.03,0000.00,22.0,00.0,0624.3,30.8
2020-01-01T01:09:00Z,00000380,01000600,0001.03,0000.46,0000.43,-000.21,0000.38,-000.10,0000.03,0000.03,0000.11,21.9,00.0,0624.4,30.8
2020-01-01T01:10:00Z,00000380,01000600,0001.15,0000.13,0000.22,-000.05,0000.39,-000.47,-000.07,-000.00,-000.01,22.0,00.0,0624.4,30.8
2020-01-01T01:11:00Z,00000380,01000600,0000.82,0000.40,0000.34,-000.33,-000.23,0000.30,0000.03,0000.06,-000.01,22.0,00.0,0624.4,30.8
2020-01-01T01:12:00Z,00000380,01000600,0001.38,0000.65,0000.36,-000.14,0000.22,0000.71,0000.02,-000.04,-000.01,21.9,00.0,0624.4,30.8
2020-01-01T01:13:00Z,00000380,01000600,0001.32,0000.57,0000.40,-000.13,0000.48,-000.13,-000.08,-000.01,-000.06,21.9,00.0,0624.4,30.8
2020-01-01T01:14:00Z,00000380,01000600,0000.85,0000.33,0000.19,0000.56,0000.38,0000.11,-000.06,-000.12,-000.04,22.0,00.0,0624.4,30.8
2020-01-01T01:15:00Z,00000380,01000600,0001.10,0000.73,0000.07,-000.09,-000.08,-000.24,0000.05,0000.05,0000.15,21.9,00.0,0624.4,30.8
2020-01-01T01:16:00Z,00000380,01000600,0000.75,0000.87,0000.22,-001.54,0000.24,-000.12,-000.09,-000.07,-000.11,21.9,00.0,0624.4,30.8
2020-01-01T01:17:00Z,00000380,01000600,0001.68,0000.54,0000.18,-000.40,0000.06,0000.05,0000.16,0000.02,0000.05,21.9,00.0,0624.3,30.8
2020-01-01T01:18:00Z,00000380,01000600,0001.47,0000.48,0000.30,-000.45,-000.08,0000.20,-000.07,0000.03,-000.01,21.9,00.0,0624.3,30.8
2020-01-01T01:19:00Z,00000380,01000600,-000.51,0000.31,0000.60,-001.18,-000.08,-000.26,-000.04,-000.03,0000.14,22.0,00.0,0624.3,30.9
2020-01-01T01:20:00Z,00000380,01000600,0002.20,0000.41,0000.02,-000.44,-000.03,0000.29,0000.07,0000.07,-000.15,22.0,00.0,0624.3,30.8
2020-01-01T01:21:00Z,00000380,01000600,0000.47,0001.02,0000.38,-000.06,-000.08,-000.23,-000.01,0000.01,-000.02,22.0,00.0,0624.3,30.9
2020-01-01T01:22:00Z,00000380,01000600,0000.18,0000.89,0000.20,0000.38,0000.19,0000.26,-000.06,0000.06,0000.06,22.0,00.0,0624.3,30.9
2020-01-01T01:23:00Z,00000380,01000600,0002.43,0001.35,0000.44,-001.07,0000.01,0000.29,0000.10,0000.03,0000.01,22.0,00.0,0624.3,30.9
2020-01-01T01:24:00Z,00000380,01000600,0001.55,0000.35,0000.27,0000.12,0000.18,0000.20,0000.06,-000.06,0000.07,22.0,00.0,0624.3,30.8
2020-01-01T01:25:00Z,00000380,01000600,0001.58,0001.00,0000.09,-000.86,0000.14,0000.30,0000.08,-000.01,-000.02,22.0,00.0,0624.3,30.8
2020-01-01T01:26:00Z,00000380,01000600,0000.89,0000.67,0000.18,-000.08,-000.32,0000.24,-000.08,0000.10,0000.14,22.0,00.0,0624.3,30.8
2020-01-01T01:27:00Z,00000380,01000600,0001.59,0001.07,0000.64,0000.27,0000.06,0000.32,0000.06,0000.11,0000.11,22.0,00.0,0624.3,30.8
2020-01-01T01:28:00Z,00000380,01000600,0000.92,0001.22,0000.39,-000.72,0000.48,0000.11,0000.16,0000.10,-000.07,22.0,00.0,0624.3,30.8
2020-01-01T01:29:00Z,00000380,01000600,0001.33,0000.03,0000.26,-001.39,-000.00,-000.19,-000.08,-000.01,0000.07,22.0,00.0,0624.3,30.8
2020-01-01T01:30:00Z,00000380,01000600,-000.23,0000.88,0000.44,-000.68,-000.03,0000.09,0000.19,0000.09,-000.04,22.0,00.0,0624.3,30.8
2020-01-01T01:31:00Z,00000380,01000600,0001.10,0001.38,-000.02,-000.04,0000.36,0000.64,0000.04,-000.00,0000.02,22.0,00.0,0624.3,30.8
2020-01-01T01:32:00Z,00000380,01000600,0001.28,0001.01,0000.23,-000.19,0000.48,0000.23,0000.10,0000.05,0000.08,22.0,00.0,0624.3,30.9
2020-01-01T01:33:00Z,00000380,01000600,0001.36,0000.14,-000.27,0000.78,-000.07,0000.19,-000.07,0000.15,0000.06,22.0,00.0,0624.3,30.9
2020-01-01T01:34:00Z,00000380,01000600,0001.06,0000.57,0000.22,-000.49,-000.38,0000.02,0000.05,0000.00,0000.08,22.0,00.0,0624.3,30.8
2020-01-01T01:35:00Z,00000380,01000600,0000.90,-000.00,-000.01,0000.49,0000.26,0000.17,0000.10,0000.03,-000.04,22.0,00.0,0624.2,30.8
2020-01-01T01:36:00Z,00000380,01000600,0000.66,0000.59,0000.08,0000.68,-000.25,0000.21,0000.03,-000.09,0000.04,22.0,00.0,0624.2,30.8
2020-01-01T01:37:00Z,00000380,01000600,0001.51,0000.63,0000.28,-000.01,0000.36,0000.14,-000.04,0000.10,0000.09,22.0,00.0,0624.2,30.8
2020-01-01T01:38:00Z,00000380,01000600,0001.48,0000.78,0000.25,0000.29,0000.19,-000.27,0000.14,0000.09,-000.01,21.9,00.0,0624.2,30.8
2020-01-01T01:39:00Z,00000380,01000600,0002.12,0000.37,0000.15,0000.03,0000.20,0000.01,-000.07,-000.08,-000.04,22.0,00.0,0624.2,30.8
2020-01-01T01:40:00Z,00000380,01000600,0000.76,0001.01,0000.41,0000.19,0000.44,0000.19,0000.05,-000.03,0000.05,22.0,00.0,0624.2,30.8
2020-01-01T01:41:00Z,00000380,01000600,0000.64,0000.68,0000.14,-000.68,0000.25,0000.02,-000.18,0000.04,-000.04,21.9,00.0,0624.2,30.8
2020-01-01T01:42:00Z,00000380,01000600,0001.83,0000.61,0000.50,-000.72,0000.19,0000.37,0000.12,0000.10,0000.09,21.9,00.0,0624.2,30.8
2020-01-01T01:43:00Z,00000380,01000600,0000.06,0000.12,0000.38,-000.53,-000.08,-000.08,0000.14,0000.04,0000.05,21.9,00.0,0624.2,30.8
2020-01-01T01:44:00Z,00000380,01000600,0001.53,0000.58,0000.07,-000.37,0000.19,-000.02,-000.04,-000.02,0000.07,21.9,00.0,0624.2,30.8
2020-01-01T01:45:00Z,00000380,01000600,0002.14,0001.27,0000.22,-000.16,0000.01,0000.18,0000.00,0000.07,-000.08,21.9,00.0,0624.2,30.8
2020-01-01T01:46:00Z,00000380,01000600,0001.65,0000.75,0000.52,0000.21,0000.36,-000.13,-000.02,0000.02,0000.07,21.9,00.0,0624.2,30.8
2020-01-01T01:47:00Z,00000380,01000600,0001.66,0000.41,-000.25,-000.26,-000.09,-000.45,0000.07,0000.02,0000.04,21.9,00.0,0624.2,30.8
2020-01-01T01:48:00Z,00000380,01000600,0000.59,0000.51,0000.55,-000.26,0000.13,0000.19,0000.16,0000.08,0000.02,21.9,00.0,0624.2,30.8
2020-01-01T01:49:00Z,00000380,01000600,0000.93,0000.86,0000.09,0000.31,0000.21,-000.19,-000.01,-000.04,-000.03,21.9,00.0,0624.2,30.8
2020-01-01T01:50:00Z,00000380,01000600,0001.25,0000.47,0000.09,-000.48,0000.01,-000.01,-000.08,0000.10,0000.15,21.9,00.0,0624.2,30.8
2020-01-01T01:51:00Z,00000380,01000600,0000.10,0000.63,0000.26,-000.77,0000.60,-000.18,-000.02,-000.15,-000.06,21.9,00.0,0624.2,30.8
2020-01-01T01:52:00Z,00000380,01000600,0001.82,0001.29,0000.08,0000.62,0000.05,0000.45,-000.01,0000.12,0000.01,21.9,00.0,0624.2,30.8
2020-01-01T01:53:00Z,00000380,01000600,0002.23,0000.35,0000.69,-000.16,0000.43,0000.33,0000.13,-000.00,0000.06,21.9,00.0,0624.2,30.8
2020-01-01T01:54:00Z,00000380,01000600,0002.23,0001.04,0000.75,-000.34,0000.59,-000.02,0000.08,0000.09,-000.08,21.9,00.0,0624.2,30.8
2020-01-01T01:55:00Z,00000380,01000600,0001.69,0000.71,-000.01,-000.21,0000.52,0000.39,-000.07,0000.09,0000.09,21.9,00.0,0624.2,30.8
2020-01-01T01:56:00Z,00000380,01000600,0001.55,0001.29,0000.14,-001.02,0000.65,-000.06,0000.16,-000.06,0000.05,21.9,00.0,0624.2,30.8
2020-01-01T01:57:00Z,00000380,41000600,,,,,,,,,,21.9,00.0,0624.2,30.8
2020-01-01T01:58:00Z,00000380,61000600,,,,,,,,,,22.1,00.0,0623.1,30.8
2020-01-01T01:59:00Z,00000380,21000600,,,,,,,,,,22.2,00.0,0623.1,30.8
2020-01-01T02:00:00Z,00000380,21000600,,,,,,,,,,22.2,00.0,0623.1,30.8
2020-01-01T02:01:00Z,00000380,21000600,,,,,,,,,,22.2,00.0,0623.1,30.8
2020-01-01T02:02:00Z,00000380,21000600,,,,,,,,,,22.2,00.0,0623.1,30.8
2020-01-01T02:03:00Z,00000380,61000600,,,,,,,,,,22.2,00.0,0623.1,30.8
2020-01-01T02:04:00Z,00000380,41000600,0001.31,0000.84,0000.56,0000.80,-000.09,0000.35,0000.03,0000.10,0000.06,22.0,00.0,0624.1,30.8
2020-01-01T02:05:00Z,00000380,01000600,0000.39,0001.39,0000.50,0000.31,-000.02,0000.10,0000.05,-000.07,-000.01,22.0,00.0,0624.2,30.8
2020-01-01T02:06:00Z,00000380,01000600,0000.86,0000.87,0000.20,0000.01,0000.14,-000.33,0000.00,-000.04,0000.02,22.0,00.0,0624.2,30.8
2020-01-01T02:07:00Z,00000380,01000600,-000.23,0001.19,0001.06,-000.62,0000.43,-000.09,0000.08,0000.09,-000.01,21.9,00.0,0624.2,30.8
2020-01-01T02:08:00Z,00000380,01000600,0001.36,0001.08,-000.05,-000.57,-000.02,-000.08,0000.07,0000.12,0000.13,21.9,00.0,0624.2,30.8
2020-01-01T02:09:00Z,00000380,01000600,0000.82,0000.96,0000.21,0000.31,0000.14,0000.07,-000.09,-000.07,-000.02,21.9,00.0,0624.2,30.8
2020-01-01T02:10:00Z,00000380,01000600,0001.70,0000.25,0000.85,-000.12,0000.20,0000.28,0000.13,0000.06,-000.06,21.9,00.0,0624.2,30.8
2020-01-01T02:11:00Z,00000380,01000600,-000.05,0001.01,0000.59,0000.24,-000.09,0000.23,-000.05,0000.01,0000.08,21.9,00.0,0624.2,30.8
2020-01-01T02:12:00Z,00000380,01000600,0000.86,0001.55,0000.22,0000.38,0000.24,-000.03,-000.02,-000.12,-000.06,21.9,00.0,0624.2,30.8
2020-01-01T02:13:00Z,00000380,01000600,0000.21,0000.51,0000.64,0000.24,-000.39,0000.21,-000.15,0000.16,0000.08,22.0,00.0,0624.2,30.8
2020-01-01T02:14:00Z,00000380,01000600,-000.00,0000.99,0000.49,0000.32,-000.10,-000.09,0000.14,0000.04,-000.11,21.9,00.0,0624.2,30.8
2020-01-01T02:15:00Z,00000380,01000600,0000.10,0001.50,0000.44,-000.46,0000.43,0000.31,0000.08,-000.06,0000.03,22.0,00.0,0624.2,30.8
2020-01-01T02:16:00Z,00000380,01000600,0002.11,0000.65,0000.59,0001.08,0000.30,-000.16,-000.10,0000.03,-000.08,21.9,00.0,0624.2,30.8
2020-01-01T02:17:00Z,00000380,01000600,0000.15,0001.22,-000.27,0000.59,0000.34,0000.08,0000.02,0000.08,0000.08,21.9,00.0,0624.2,30.8
2020-01-01T02:18:00Z,00000380,01000600,0002.27,0001.70,0000.23,0000.68,-000.19,-000.29,-000.08,-000.16,0000.04,21.9,00.0,0624.2,30.8
2020-01-01T02:19:00Z,00000380,01000600,-001.37,0001.23,0000.28,-000.09,0000.09,0000.37,-000.05,-000.06,-000.09,21.9,00.0,0624.2,30.8
2020-01-01T02:20:00Z,00000380,01000600,0001.39,0000.64,0000.34,0000.87,0000.23,0000.24,0000.16,0000.15,0000.15,21.9,00.0,0624.1,30.8
2020-01-01T02:21:00Z,00000380,01000600,0000.48,0001.59,0000.74,0001.18,0000.60,0000.26,0000.13,-000.02,-000.15,21.9,00.0,0624.1,30.8
2020-01-01T02:22:00Z,00000380,01000600,0002.17,0001.17,0000.91,-000.21,0000.31,-000.06,-000.05,0000.18,0000.15,21.9,00.0,0624.1,30.8
2020-01-01T02:23:00Z,00000380,01000600,0000.73,0001.35,0000.71,-000.03,0000.02,0000.17,0000.05,-000.15,-000.00,21.9,00.0,0624.1,30.8
2020-01-01T02:24:00Z,00000380,01000600,0000.86,0001.02,0000.30,-000.52,-000.06,-000.14,0000.05,0000.14,-000.03,21.9,00.0,0624.1,30.8
2020-01-01T02:25:00Z,00000380,01000600,0000.60,0000.74,0000.08,-000.14,0000.41,0000.27,-000.01,-000.07,0000.11,21.9,00.0,0624.1,30.8
2020-01-01T02:26:00Z,00000380,01000600,0000.76,0001.05,0000.38,-000.19,0000.21,-000.19,-000.09,0000.14,-000.01,21.9,00.0,0624.1,30.8
2020-01-01T02:27:00Z,00000380,01000600,0000.59,0001.25,0000.18,0000.31,0000.28,-000.11,0000.14,-000.12,-000.03,21.9,00.0,0624.1,30.8
2020-01-01T02:28:00Z,00000380,01000600,0001.77,0000.77,0001.00,0001.04,0000.04,0000.04,0000.04,-000.03,0000.10,21.9,00.0,0624.1,30.8
2020-01-01T02:29:00Z,00000380,01000600,0001.14,0000.87,0000.77,0000.38,0000.03,0000.39,0000.05,-000.00,-000.10,21.9,00.0,0624.1,30.8
2020-01-01T02:30:00Z,00000380,01000600,0000.53,0000.65,0000.77,0001.17,0000.48,0000.18,-000.08,0000.07,0000.20,21.9,00.0,0624.1,30.8
2020-01-01T02:31:00Z,00000380,01000600,0001.33,0001.32,0000.63,0000.11,0000.57,-000.18,0000.23,0000.01,-000.12,21.9,00.0,0624.1,30.8
2020-01-01T02:32:00Z,00000380,01000600,0001.95,0000.16,0000.64,0000.55,-000.09,-000.22,-000.17,0000.07,0000.11,21.9,00.0,0624.0,30.8
2020-01-01T02:33:00Z,00000380,01000600,0000.72,0000.99,0000.99,-000.14,0000.19,0000.77,0000.07,-000.07,-000.05,21.9,00.0,0624.0,30.8
2020-01-01T02:34:00Z,00000380,01000600,0000.40,0001.22,0001.12,0000.57,0000.37,0000.28,0000.04,0000.04,-000.00,21.8,00.0,0624.0,30.8
2020-01-01T02:35:00Z,00000380,01000600,0000.71,0001.20,0000.79,0000.45,-000.22,0000.04,0000.06,0000.02,0000.04,21.9,00.0,0624.0,30.8
2020-01-01T02:36:00Z,00000380,01000600,0002.08,0001.15,0000.95,0000.72,0000.48,0000.25,-000.13,0000.02,-000.14,21.9,00.0,0624.0,30.8
2020-01-01T02:37:00Z,00000380,01000600,0000.99,0001.13,0000.59,0000.47,0000.24,0000.20,0000.09,-000.03,0000.12,21.9,00.0,0624.0,30.8
2020-01-01T02:38:00Z,00000380,01000600,0001.55,0001.65,0000.64,0000.04,0000.50,-000.05,0000.06,0000.07,0000.03,21.9,00.0,0624.0,30.8
2020-01-01T02:39:00Z,00000380,01000600,-000.61,0001.50,0000.54,0000.18,0000.10,0000.42,-000.04,0000.12,0000.07,21.9,00.0,0624.0,30.8
2020-01-01T02:40:00Z,00000380,01000600,0001.68,0001.00,0000.55,-000.84,0000.09,0000.25,0000.11,-000.05,-000.06,21.9,00.0,0624.0,30.8
2020-01-01T02:41:00Z,00000388,01000608,0001.29,0001.02,0001.09,-000.04,0000.44,0000.11,-000.02,-000.07,0000.00,21.9,00.0,0624.0,30.8
2020-01-01T02:42:00Z,00000388,01000608,0000.25,0001.40,0000.76,0000.45,0000.38,-000.11,0000.04,0000.03,-000.01,21.8,00.0,0624.0,30.8
2020-01-01T02:43:00Z,00000388,01000608,0001.39,0001.76,0000.92,0000.74,0000.09,0000.14,-000.05,0000.09,0000.11,21.8,00.0,0624.0,30.8
2020-01-01T02:44:00Z,00000388,01000608,-000.26,0001.16,0001.21,0000.76,0000.40,0000.37,0000.10,0000.00,-000.02,21.9,00.0,0624.0,30.8
2020-01-01T02:45:00Z,00000388,01000608,0001.07,0000.99,0000.91,0000.74,0000.00,-000.07,-000.15,0000.01,0000.05,21.9,00.0,0624.0,30.8
2020-01-01T02:46:00Z,00000388,01000608,0000.74,0000.93,0000.42,-000.50,0000.16,-000.27,0000.12,0000.05,-000.10,21.9,00.0,0624.0,30.8
2020-01-01T02:47:00Z,00000388,01000608,0000.01,0001.05,0001.04,0001.67,0000.30,-000.55,0000.09,0000.07,0000.02,21.8,00.0,0624.0,30.8
2020-01-01T02:48:00Z,00000388,01000608,0002.51,0001.32,0000.70,-000.72,0000.20,-000.22,0000.16,0000.07,0000.05,21.8,00.0,0624.0,30.8
2020-01-01T02:49:00Z,00000388,01000608,0000.25,0001.28,0000.78,0000.34,0000.01,0000.53,-000.05,-000.06,-000.04,21.8,00.0,0624.0,30.8
2020-01-01T02:50:00Z,00000388,01000608,0000.19,0001.45,0000.60,0000.22,0000.34,0000.38,-000.13,0000.04,0000.07,21.8,00.0,0624.0,30.8
2020-01-01T02:51:00Z,00000388,01000608,0002.80,0000.62,0000.58,0000.90,0000.31,0000.32,0000.27,-000.06,0000.13,21.8,00.0,0624.0,30.8
2020-01-01T02:52:00Z,00000388,01000608,0002.09,0001.47,0000.60,0001.26,0000.41,-000.11,-000.10,0000.05,-000.11,21.8,00.0,0624.0,30.8
2020-01-01T02:53:00Z,00000388,01000608,0001.08,0001.15,0001.23,-000.70,0000.40,0000.60,-000.05,0000.01,0000.02,21.8,00.0,0624.0,30.8
2020-01-01T02:54:00Z,00000388,01000608,0001.15,0001.08,0000.41,0001.02,0000.31,-000.14,0000.20,-000.02,-000.04,21.8,00.0,0624.0,30.8
2020-01-01T02:55:00Z,00000388,01000608,0001.31,0001.23,0000.07,-000.35,0000.34,-000.17,-000.06,0000.05,0000.08,21.8,00.0,0624.0,30.8
2020-01-01T02:56:00Z,00000388,01000608,0000.76,0001.03,0000.07,-000.46,-000.02,0000.09,0000.06,0000.20,0000.06,21.8,00.0,0624.0,30.8
2020-01-01T02:57:00Z,00000388,41000608,,,,,,,,,,21.9,00.0,0624.0,30.8
2020-01-01T02:58:00Z,00000388,61000608,,,,,,,,,,22.0,00.0,0623.0,30.8
2020-01-01T02:59:00Z,00000388,21000608,,,,,,,,,,22.0,00.0,0623.0,30.8
2020-01-01T03:00:00Z,00000388,21000608,,,,,,,,,,22.1,00.0,0623.0,30.8
2020-01-01T03:01:00Z,00000388,21000608,,,,,,,,,,22.1,00.0,0623.0,30.8
2020-01-01T03:02:00Z,00000388,21000608,,,,,,,,,,22.1,00.0,0623.0,30.8
2020-01-01T03:03:00Z,00000388,61000608,,,,,,,,,,22.1,00.0,0623.0,30.8
2020-01-01T03:04:00Z,00000388,41000608,0001.46,0000.75,-000.01,-000.23,0000.22,-000.36,0000.02,-000.05,0000.03,21.9,00.0,0623.9,30.8
2020-01-01T03:05:00Z,00000388,01000608,0002.41,0001.10,0000.11,0000.67,-000.10,0000.18,0000.10,0000.11,-000.05,21.9,00.0,0624.0,30.8
2020-01-01T03:06:00Z,00000388,01000608,0000.33,0000.86,0000.00,0000.25,0000.05,0000.18,0000.01,-000.03,0000.03,21.9,00.0,0624.0,30.8
2020-01-01T03:07:00Z,00000388,01000608,0002.44,0000.45,0000.29,0001.57,0000.11,0000.06,0000.01,0000.10,0000.09,21.9,00.0,0624.0,30.8
2020-01-01T03:08:00Z,00000388,01000608,0000.48,0000.98,0000.27,-000.04,0000.38,-000.51,-000.12,-000.06,0000.01,21.8,00.0,0623.9,30.8
2020-01-01T03:09:00Z,00000388,01000608,0001.31,0001.26,0000.20,-000.16,-000.07,0000.34,0000.08,-000.03,0000.09,21.8,00.0,0623.9,30.8
2020-01-01T03:10:00Z,00000388,01000608,0001.49,0001.42,-000.16,-000.04,-000.35,0000.20,0000.05,0000.08,-000.07,21.8,00.0,0623.9,30.8